Weather History for KALN - February, 2014

Change the Weather History Date:

Thursday, February 6, 2014

  Actual Average Record
Temperature  
Mean Temperature 4 °F -  
Max Temperature 10 °F 41 °F 59 °F (2009)
Min Temperature -2 °F 26 °F -2 °F (2014)
Degree Days  
Heating Degree Days 61    
Moisture  
Dew Point -5 °F    
Average Humidity 64    
Maximum Humidity 78    
Minimum Humidity 41    
Precipitation  
Precipitation 0.00 in - - ()
Sea Level Pressure  
Sea Level Pressure 30.55 in    
Wind  
Wind Speed 8 mph (WNW)    
Max Wind Speed 15 mph    
Max Gust Speed 18 mph    
Visibility 10 miles    
Events Snow    
Averages and records for this station are not official NWS values.
T = Trace of Precipitation, MM = Missing Value Source: NWS Daily Summary

Daily Weather History Graph

Daily Weather History Graph

Search for Another Location

Airport or City:

Trip Planner

Search our weather history database for the weather conditions in past years. The results will help you decide how hot, cold, wet, or windy it might be!

Date:

Astronomy

Feb. 06, 2014 Rise Set
Actual Time 7:01 AM CST 5:27 PM CST
Civil Twilight 6:33 AM CST 5:55 PM CST
Nautical Twilight 6:02 AM CST 6:26 PM CST
Astronomical Twilight 5:30 AM CST 6:58 PM CST
Moon 10:59 AM CST (2/6) 12:17 AM CST (2/6)
Length of Visible Light 11h 21m
Length of Day
10h 25m
Waxing Crescent, 49% of the Moon is Illuminated
Feb 6
Waxing Crescent
Feb 6
First Quarter
Feb 14
Full
Feb 22
Last Quarter
Mar 1
New

Hourly Weather History & Observations

Time (CST) Temp. Windchill Dew Point Humidity Pressure Visibility Wind Dir Wind Speed Gust Speed Precip Events Conditions
12:15 AM 10.0 °F -4.5 °F 2.7 °F 72% 30.57 in 7.0 mi WNW 11.5 mph - N/A Snow Light Snow
12:35 AM 9.9 °F -2.2 °F 2.8 °F 73% 30.57 in 7.0 mi NW 8.1 mph - N/A Snow Light Snow
12:55 AM 9.5 °F -1.5 °F 2.3 °F 73% 30.56 in 7.0 mi NW 6.9 mph - N/A Snow Light Snow
1:15 AM 9.3 °F -4.6 °F 1.9 °F 72% 30.55 in 7.0 mi NW 10.4 mph - N/A Snow Light Snow
1:35 AM 8.6 °F -3.7 °F 0.7 °F 70% 30.56 in 10.0 mi NW 8.1 mph - N/A Snow Light Snow
1:55 AM 8.2 °F -5.1 °F -0.0 °F 69% 30.56 in 10.0 mi NW 9.2 mph 18.4 mph N/A   Unknown
2:15 AM 7.7 °F -6.6 °F -1.1 °F 67% 30.56 in 10.0 mi WNW 10.4 mph - N/A   Unknown
2:35 AM 7.3 °F -7.1 °F -1.8 °F 66% 30.55 in 10.0 mi NW 10.4 mph - N/A   Unknown
2:55 AM 6.8 °F -4.8 °F -2.4 °F 66% 30.55 in 10.0 mi NW 6.9 mph - N/A   Unknown
3:15 AM 6.6 °F -3.7 °F -2.4 °F 67% 30.55 in 10.0 mi NW 5.8 mph - N/A   Unknown
3:35 AM 5.9 °F -5.8 °F -3.1 °F 67% 30.55 in 10.0 mi NW 6.9 mph - N/A   Unknown
3:55 AM 5.4 °F -5.2 °F -3.1 °F 68% 30.55 in 10.0 mi NW 5.8 mph - N/A   Unknown
4:15 AM 4.1 °F -8.0 °F -3.6 °F 70% 30.55 in 10.0 mi WNW 6.9 mph - N/A   Unknown
4:35 AM 4.1 °F -6.7 °F -3.6 °F 70% 30.55 in 10.0 mi NW 5.8 mph - N/A   Unknown
4:55 AM 2.3 °F -10.2 °F -4.5 °F 73% 30.56 in 10.0 mi WNW 6.9 mph - N/A   Unknown
5:15 AM 1.6 °F -12.2 °F -5.1 °F 74% 30.57 in 10.0 mi West 8.1 mph - N/A   Unknown
5:35 AM 0.1 °F -14.0 °F -6.2 °F 75% 30.57 in 10.0 mi West 8.1 mph - N/A   Unknown
5:55 AM -0.2 °F -14.4 °F -6.0 °F 77% 30.58 in 10.0 mi WNW 8.1 mph - N/A   Unknown
6:50 AM -0.4 °F -17.6 °F -7.6 °F 72% 30.59 in 10.0 mi WNW 11.5 mph - N/A   Scattered Clouds
7:50 AM -2.2 °F -18.0 °F -7.6 °F 78% 30.60 in 10.0 mi WNW 9.2 mph - N/A   Partly Cloudy
8:53 AM 3.2 °F -11.3 °F -5.8 °F 66% 30.61 in 10.0 mi WNW 9.2 mph - N/A   Scattered Clouds
9:50 AM 5.0 °F -9.1 °F -7.6 °F 56% 30.62 in 10.0 mi WNW 9.2 mph - N/A   Mostly Cloudy
10:50 AM 6.8 °F -10.7 °F -7.6 °F 52% 30.61 in 10.0 mi NW 15.0 mph - N/A   Mostly Cloudy
11:47 AM 8.6 °F -8.3 °F -9.4 °F 44% 30.60 in 10.0 mi WNW 15.0 mph - N/A   Mostly Cloudy
12:50 PM 10.4 °F -3.3 °F -9.4 °F 41% 30.55 in 10.0 mi NW 10.4 mph 17.3 mph N/A   Mostly Cloudy
1:50 PM 10.4 °F -3.3 °F -9.4 °F 41% 30.54 in 10.0 mi NW 10.4 mph - N/A   Mostly Cloudy
2:50 PM 10.4 °F 0.8 °F -7.6 °F 44% 30.52 in 10.0 mi NW 5.8 mph - N/A   Mostly Cloudy
3:50 PM 10.4 °F 0.8 °F -7.6 °F 44% 30.52 in 10.0 mi NW 5.8 mph - N/A   Mostly Cloudy
4:45 PM 10.4 °F -4.1 °F -5.8 °F 48% 30.53 in 10.0 mi WNW 11.5 mph - N/A   Mostly Cloudy
5:45 PM 10.4 °F -2.4 °F -4.0 °F 52% 30.52 in 10.0 mi WSW 9.2 mph - N/A   Overcast
6:45 PM 6.8 °F -3.5 °F -4.0 °F 61% 30.52 in 10.0 mi WSW 5.8 mph - N/A   Overcast
7:45 PM 3.2 °F -9.1 °F -4.0 °F 72% 30.50 in 10.0 mi West 6.9 mph - N/A   Overcast
8:45 PM 1.4 °F -13.5 °F -7.6 °F 66% 30.51 in 10.0 mi West 9.2 mph - N/A   Overcast
9:15 PM 1.4 °F -8.3 °F -8.0 °F 65% 30.51 in 10.0 mi West 4.6 mph - N/A   Unknown
9:35 PM -1.1 °F -12.9 °F -10.8 °F 63% 30.51 in 10.0 mi West 5.8 mph - N/A   Unknown
9:45 PM -2.2 °F -18.0 °F -11.2 °F 66% 30.51 in 10.0 mi West 9.2 mph - N/A   Overcast
9:55 PM -0.4 °F -10.4 °F -10.5 °F 62% 30.52 in 10.0 mi West 4.6 mph - N/A   Unknown
10:15 PM 0.1 °F -9.7 °F -8.7 °F 66% 30.52 in 10.0 mi WNW 4.6 mph - N/A   Unknown
10:35 PM 2.1 °F -5.4 °F -7.8 °F 63% 30.51 in 10.0 mi WNW 3.5 mph - N/A   Unknown
10:55 PM 0.7 °F -7.1 °F -8.3 °F 66% 30.50 in 10.0 mi NW 3.5 mph - N/A   Unknown
11:15 PM 0.7 °F - -8.1 °F 66% 30.49 in 10.0 mi Calm Calm - N/A   Unknown
11:35 PM 0.7 °F - -8.9 °F 64% 30.50 in 10.0 mi Calm Calm - N/A   Unknown
11:55 PM -0.4 °F - -8.5 °F 69% 30.50 in 10.0 mi Calm Calm - N/A   Unknown